Tracking 22779 objects as of 12-Apr-2021
HD Live streaming from Space Station
objects crossing your sky now

STARLINK-76

Track STARLINK-76 now!
10-day predictions
STARLINK-76 is classified as:


NORAD ID: 44287
Int'l Code: 2019-029BE
Perigee: 412.7 km
Apogee: 416.7 km
Inclination: 53.0 °
Period: 92.7 minutes
Semi major axis: 6785 km
RCS: Unknown
Launch date: May 24, 2019
Source: United States (US)
Launch site: AIR FORCE EASTERN TEST RANGE (AFETR)
aabbcc
Your satellite tracking list
Your tracking list is empty




NASA's NSSDC Master Catalog

Two Line Element Set (TLE):
1 44287U 19029BE  21101.80946314  .00042190  00000-0  66535-3 0  9990
2 44287  52.9955 222.6800 0002971  17.7912 342.3200 15.53136363104508
Source of the keplerian elements: AFSPC